When you browse on this site, cookies collect data to enhance your experience and personalize the content and advertising you see.
Visit our Privacy Policy to learn more. By continuing to use the site, you agree to this use of cookies and data.

Previsão horária em Vaduz

Hoje, 9 Julho, Quinta-feira

Tempo Temperatura Precipitação Vento Pressão Humidade
00:00 +13°C° 0 mm 0 m/s 708 mmHg 88%
01:00 +13°C° 0 mm 0 m/s 708 mmHg 91%
02:00 +12°C° 0 mm 0 m/s 708 mmHg 91%
03:00 +12°C° 0 mm 0 m/s 708 mmHg 92%
04:00 +12°C° 0 mm 0 m/s 708 mmHg 92%
05:00 +13°C° 0 mm 0 m/s 708 mmHg 89%
06:00 +15°C° 0 mm 0 m/s 708 mmHg 85%
07:00 +16°C° 0 mm 0 m/s 708 mmHg 82%
08:00 +20°C° 0 mm 1 m/s 708 mmHg 75%
09:00 +22°C° 0 mm 1 m/s 708 mmHg 69%
10:00 +24°C° 0 mm 1 m/s 708 mmHg 62%
11:00 +25°C° 0 mm 2 m/s 708 mmHg 57%
12:00 +26°C° 0 mm 2 m/s 708 mmHg 52%
13:00 +28°C° 0 mm 3 m/s 708 mmHg 47%
14:00 +28°C° 0 mm 3 m/s 708 mmHg 46%
15:00 +28°C° 0 mm 3 m/s 708 mmHg 45%
16:00 +29°C° 0 mm 3 m/s 708 mmHg 44%
17:00 +27°C° 0 mm 2 m/s 707 mmHg 52%
18:00 +26°C° 0 mm 2 m/s 707 mmHg 60%
19:00 +24°C° 0 mm 1 m/s 706 mmHg 67%
20:00 +22°C° 0 mm 1 m/s 706 mmHg 72%
21:00 +21°C° 0 mm 1 m/s 707 mmHg 76%
22:00 +17°C° 0 mm 0 m/s 707 mmHg 80%
23:00 +16°C° 0 mm 0 m/s 706 mmHg 81%

Amanhã, 10 Julho, Sexta-feira

Tempo Temperatura Precipitação Vento Pressão Humidade
00:00 +18°C° 0 mm 1 m/s 706 mmHg 82%
01:00 +16°C° 0 mm 1 m/s 706 mmHg 83%
02:00 +16°C° 0 mm 1 m/s 706 mmHg 83%
03:00 +15°C° 0 mm 1 m/s 705 mmHg 84%
04:00 +15°C° 0 mm 1 m/s 705 mmHg 85%
05:00 +18°C° 0 mm 1 m/s 705 mmHg 82%
06:00 +19°C° 0 mm 1 m/s 705 mmHg 79%
07:00 +20°C° 0 mm 1 m/s 705 mmHg 76%
08:00 +22°C° 0.1 mm 1 m/s 705 mmHg 71%
09:00 +24°C° 0.1 mm 2 m/s 705 mmHg 66%
10:00 +26°C° 0.1 mm 2 m/s 705 mmHg 60%
11:00 +27°C° 0.3 mm 3 m/s 705 mmHg 59%
12:00 +27°C° 0.3 mm 4 m/s 705 mmHg 57%
13:00 +28°C° 0.3 mm 5 m/s 705 mmHg 55%
14:00 +26°C° 0.8 mm 4 m/s 705 mmHg 66%
15:00 +23°C° 0.8 mm 4 m/s 705 mmHg 77%
16:00 +20°C° 0.8 mm 3 m/s 705 mmHg 88%
17:00 +20°C° 1.4 mm 3 m/s 705 mmHg 90%
18:00 +19°C° 1.4 mm 2 m/s 705 mmHg 92%
19:00 +19°C° 1.4 mm 2 m/s 705 mmHg 95%
20:00 +18°C° 1.6 mm 2 m/s 706 mmHg 95%
21:00 +17°C° 1.6 mm 2 m/s 706 mmHg 95%
22:00 +17°C° 1.6 mm 2 m/s 706 mmHg 95%
23:00 +16°C° 1 mm 2 m/s 706 mmHg 95%

Depois de amanhã, 11 Julho, Sábado

Tempo Temperatura Precipitação Vento Pressão Humidade
00:00 +15°C° 1 mm 1 m/s 706 mmHg 95%
01:00 +15°C° 1 mm 1 m/s 707 mmHg 95%
02:00 +15°C° 0.2 mm 1 m/s 707 mmHg 95%
03:00 +14°C° 0.2 mm 1 m/s 707 mmHg 95%
04:00 +14°C° 0.2 mm 1 m/s 707 mmHg 95%
05:00 +14°C° 0.1 mm 1 m/s 707 mmHg 95%
06:00 +14°C° 0.1 mm 1 m/s 707 mmHg 95%
07:00 +14°C° 0.1 mm 1 m/s 707 mmHg 95%
08:00 +14°C° 0.5 mm 1 m/s 708 mmHg 91%
09:00 +15°C° 0.5 mm 1 m/s 708 mmHg 88%
10:00 +15°C° 0.5 mm 1 m/s 709 mmHg 84%
11:00 +16°C° 0.4 mm 1 m/s 709 mmHg 81%
12:00 +17°C° 0.4 mm 2 m/s 709 mmHg 78%
13:00 +17°C° 0.4 mm 2 m/s 710 mmHg 74%
14:00 +18°C° 0.4 mm 2 m/s 710 mmHg 73%
15:00 +18°C° 0.4 mm 2 m/s 710 mmHg 72%
16:00 +19°C° 0.4 mm 1 m/s 710 mmHg 70%
17:00 +19°C° 0.3 mm 1 m/s 710 mmHg 74%
18:00 +18°C° 0.3 mm 1 m/s 710 mmHg 78%
19:00 +16°C° 0.3 mm 1 m/s 711 mmHg 81%
20:00 +15°C° 0 mm 1 m/s 711 mmHg 84%
21:00 +13°C° 0 mm 1 m/s 711 mmHg 87%
22:00 +11°C° 0 mm 1 m/s 711 mmHg 89%
23:00 +11°C° 0 mm 1 m/s 711 mmHg 90%

12 Julho, Domingo

Tempo Temperatura Precipitação Vento Pressão Humidade
00:00 +10°C° 0 mm 1 m/s 711 mmHg 92%
01:00 +10°C° 0 mm 1 m/s 711 mmHg 93%
02:00 +9°C° 0 mm 1 m/s 710 mmHg 93%
03:00 +9°C° 0 mm 1 m/s 710 mmHg 93%
04:00 +9°C° 0 mm 1 m/s 710 mmHg 93%
05:00 +9°C° 0 mm 2 m/s 710 mmHg 91%
06:00 +10°C° 0 mm 2 m/s 710 mmHg 90%
07:00 +12°C° 0 mm 2 m/s 711 mmHg 88%
08:00 +13°C° 0 mm 3 m/s 711 mmHg 80%
09:00 +16°C° 0 mm 3 m/s 711 mmHg 72%
10:00 +18°C° 0 mm 4 m/s 711 mmHg 64%
11:00 +19°C° 0 mm 4 m/s 711 mmHg 61%
12:00 +20°C° 0 mm 4 m/s 711 mmHg 58%
13:00 +21°C° 0 mm 4 m/s 711 mmHg 54%
14:00 +21°C° 0 mm 5 m/s 711 mmHg 55%
15:00 +21°C° 0 mm 5 m/s 711 mmHg 56%
16:00 +21°C° 0 mm 5 m/s 710 mmHg 57%
17:00 +20°C° 0 mm 5 m/s 710 mmHg 62%
18:00 +19°C° 0 mm 4 m/s 710 mmHg 67%
19:00 +18°C° 0 mm 4 m/s 710 mmHg 72%
20:00 +16°C° 0 mm 3 m/s 710 mmHg 75%
21:00 +13°C° 0 mm 3 m/s 710 mmHg 78%
22:00 +12°C° 0 mm 3 m/s 710 mmHg 81%
23:00 +12°C° 0 mm 2 m/s 709 mmHg 83%

13 Julho, Segunda-feira

Tempo Temperatura Precipitação Vento Pressão Humidade
00:00 +10°C° 0 mm 2 m/s 709 mmHg 85%
01:00 +10°C° 0 mm 2 m/s 709 mmHg 86%
02:00 +9°C° 0 mm 2 m/s 708 mmHg 88%
03:00 +8°C° 0 mm 2 m/s 708 mmHg 90%
04:00 +8°C° 0 mm 2 m/s 708 mmHg 92%
05:00 +9°C° 0 mm 2 m/s 708 mmHg 88%
06:00 +10°C° 0 mm 2 m/s 708 mmHg 85%
07:00 +12°C° 0 mm 2 m/s 708 mmHg 81%
08:00 +15°C° 0 mm 2 m/s 708 mmHg 76%
09:00 +17°C° 0 mm 2 m/s 708 mmHg 70%
10:00 +19°C° 0 mm 2 m/s 708 mmHg 65%
11:00 +20°C° 0 mm 2 m/s 708 mmHg 62%
12:00 +23°C° 0 mm 2 m/s 707 mmHg 60%
13:00 +24°C° 0 mm 2 m/s 707 mmHg 57%
14:00 +24°C° 0 mm 2 m/s 707 mmHg 57%
15:00 +24°C° 0 mm 2 m/s 707 mmHg 56%
16:00 +25°C° 0 mm 2 m/s 706 mmHg 56%
17:00 +23°C° 0 mm 2 m/s 706 mmHg 63%
18:00 +21°C° 0 mm 2 m/s 706 mmHg 71%
19:00 +20°C° 0 mm 2 m/s 705 mmHg 79%
20:00 +18°C° 0 mm 2 m/s 705 mmHg 83%
21:00 +17°C° 0 mm 2 m/s 705 mmHg 88%
22:00 +15°C° 0 mm 1 m/s 705 mmHg 92%
23:00 +14°C° 0 mm 1 m/s 705 mmHg 92%

14 Julho, Terça-feira

Tempo Temperatura Precipitação Vento Pressão Humidade
00:00 +14°C° 0 mm 1 m/s 705 mmHg 92%
01:00 +12°C° 0 mm 0 m/s 704 mmHg 92%
02:00 +12°C° 0 mm 0 m/s 704 mmHg 92%
03:00 +12°C° 0 mm 0 m/s 704 mmHg 93%
04:00 +12°C° 0 mm 0 m/s 704 mmHg 93%
05:00 +13°C° 0 mm 0 m/s 704 mmHg 90%
06:00 +14°C° 0 mm 0 m/s 704 mmHg 88%
07:00 +16°C° 0 mm 0 m/s 705 mmHg 85%
08:00 +19°C° 0.4 mm 1 m/s 705 mmHg 83%
09:00 +19°C° 0.4 mm 2 m/s 705 mmHg 81%
10:00 +20°C° 0.4 mm 3 m/s 705 mmHg 78%
11:00 +20°C° 0.2 mm 3 m/s 705 mmHg 72%
12:00 +21°C° 0.2 mm 3 m/s 706 mmHg 66%
13:00 +21°C° 0.2 mm 3 m/s 706 mmHg 59%
14:00 +22°C° 0 mm 3 m/s 706 mmHg 57%
15:00 +23°C° 0 mm 2 m/s 706 mmHg 55%
16:00 +24°C° 0 mm 2 m/s 706 mmHg 53%
17:00 +21°C° 0.1 mm 2 m/s 706 mmHg 60%
18:00 +20°C° 0.1 mm 2 m/s 706 mmHg 68%
19:00 +20°C° 0.1 mm 1 m/s 707 mmHg 76%
20:00 +18°C° 0.2 mm 1 m/s 707 mmHg 79%
21:00 +16°C° 0.2 mm 1 m/s 707 mmHg 82%
22:00 +15°C° 0.2 mm 1 m/s 707 mmHg 85%
23:00 +14°C° 0 mm 1 m/s 707 mmHg 86%
Mostrar mais